DW5852 Weather Reports


Display with metric or nautical units.
time (UTC)temp
F
wind
direction
speed
MPH
gust
MPH
rain 1hr
in
rain 24hr
in
rain mn
in
humidity
%
barometer
mb
20260902023735 64 86 0.0 0.0 0.00 0.05 0.00 67 1035.4
20260902023235 64 86 0.0 0.0 0.00 0.05 0.00 67 1035.3
20260902022735 64 86 0.0 0.0 0.00 0.05 0.00 66 1035.3
20260902022235 65 86 0.0 0.0 0.00 0.05 0.00 66 1035.2
20260902021732 65 86 0.0 0.0 0.00 0.05 0.00 65 1035.1
20260902021235 65 86 0.0 0.0 0.00 0.05 0.00 64 1035.0
20260902020732 65 86 0.0 0.0 0.00 0.05 0.00 64 1034.9
20260902020232 66 86 0.0 0.0 0.00 0.05 0.00 63 1034.9
20260902015735 66 86 0.0 0.0 0.00 0.05 0.00 62 1034.8
20260902015235 67 86 0.0 0.0 0.00 0.05 0.00 61 1034.7
20260902014732 67 86 0.0 0.0 0.00 0.05 0.00 60 1034.6
20260902014232 67 87 0.0 0.0 0.00 0.05 0.00 60 1034.5
20260902013735 68 87 0.0 0.0 0.00 0.05 0.00 60 1034.5
20260902013235 68 87 0.0 0.0 0.00 0.05 0.00 59 1034.5
20260902012735 68 77 0.0 0.0 0.00 0.05 0.00 59 1034.4
20260902012232 68 70 0.0 0.0 0.00 0.05 0.00 58 1034.4
20260902011732 69 83 0.0 0.0 0.00 0.05 0.00 57 1034.3
20260902011235 70 83 0.0 0.0 0.00 0.06 0.00 56 1034.2
20260902010732 71 74 0.0 0.0 0.00 0.06 0.00 53 1034.1
20260902010232 72 338 0.0 0.0 0.00 0.06 0.00 52 1034.1
20260902005735 71 338 0.0 0.0 0.00 0.06 0.00 53 1034.1
20260902005232 70 339 0.0 0.0 0.00 0.06 0.00 54 1034.1
20260902004732 70 337 0.0 0.0 0.00 0.06 0.00 56 1034.1
20260902004232 70 28 0.0 0.0 0.00 0.06 0.00 57 1034.0
20260902003735 69 9 0.0 0.0 0.00 0.06 0.00 57 1034.0
20260902003235 69 335 0.0 0.0 0.00 0.06 0.00 57 1034.1
20260902002732 69 49 0.0 0.0 0.00 0.06 0.00 57 1034.1
20260902002235 69 325 0.0 0.0 0.00 0.06 0.00 55 1034.1
20260902001735 70 38 0.0 0.0 0.00 0.06 0.00 55 1034.0
20260902001232 70 6 0.0 0.0 0.00 0.06 0.00 55 1033.9
20260902000732 70 64 0.0 0.0 0.00 0.06 0.00 54 1033.8
20260902000233 71 35 0.0 0.0 0.00 0.06 0.00 55 1033.7
20260901235735 71 30 0.0 0.0 0.00 0.06 0.00 56 1033.6
20260901235232 71 30 0.0 7.0 0.00 0.06 0.00 55 1033.5
20260901234735 72 343 0.0 0.0 0.00 0.06 0.00 54 1033.4
20260901234235 72 68 0.0 0.0 0.00 0.06 0.00 52 1033.4
20260901233732 73 33 0.0 6.0 0.00 0.06 0.00 53 1033.2
20260901233232 73 25 0.0 4.0 0.00 0.06 0.00 54 1033.2
20260901232732 73 58 0.0 0.0 0.00 0.06 0.00 55 1033.1
20260901232235 72 87 0.0 0.0 0.00 0.11 0.00 56 1033.1
20260901231735 71 67 0.0 0.0 0.00 0.11 0.00 56 1033.0
20260901231232 71 86 0.0 0.0 0.00 0.11 0.00 56 1033.0
20260901230732 71 71 0.0 0.0 0.00 0.11 0.00 57 1033.0
20260901230235 71 33 0.0 0.0 0.00 0.11 0.00 58 1033.0
20260901225732 70 41 0.0 4.0 0.00 0.11 0.00 57 1032.9
20260901225232 70 53 0.0 2.0 0.00 0.11 0.00 59 1032.9
20260901224732 71 32 0.0 2.0 0.00 0.11 0.00 59 1032.9
20260901224235 71 72 0.0 7.0 0.00 0.11 0.00 58 1032.9
20260901223735 71 68 0.0 2.0 0.00 0.11 0.00 58 1032.9
20260901223232 71 53 0.0 0.0 0.00 0.11 0.00 58 1032.9
20260901222732 71 26 0.0 0.0 0.00 0.11 0.00 55 1032.9
20260901222232 72 61 0.0 0.0 0.00 0.11 0.00 55 1032.9
20260901221735 73 134 0.0 8.0 0.00 0.11 0.00 53 1032.8
20260901221232 73 84 0.0 8.0 0.00 0.11 0.00 48 1032.8
20260901220735 73 65 4.0 6.0 0.00 0.11 0.00 48 1032.8
20260901220232 74 84 0.0 0.0 0.00 0.11 0.00 47 1032.7
20260901215732 75 69 0.0 8.0 0.00 0.11 0.00 46 1032.8
20260901215232 77 97 0.0 4.0 0.00 0.11 0.00 44 1032.7
20260901214735 78 150 0.0 4.0 0.00 0.11 0.00 43 1032.7
20260901214235 77 210 0.0 0.0 0.00 0.11 0.00 47 1032.6
20260901213732 76 335 0.0 0.0 0.00 0.11 0.00 48 1032.7
20260901213232 76 315 0.0 0.0 0.00 0.11 0.00 48 1032.6
20260901212732 75 241 0.0 0.0 0.00 0.11 0.00 50 1032.6
20260901212235 74 250 0.0 0.0 0.00 0.11 0.00 52 1032.7
20260901211735 73 250 0.0 0.0 0.00 0.11 0.00 55 1032.7
20260901211235 72 296 0.0 0.0 0.00 0.11 0.00 57 1032.8
20260901210735 71 325 0.0 0.0 0.00 0.11 0.00 59 1032.8
20260901210232 70 266 0.0 5.0 0.00 0.11 0.00 60 1032.9
20260901205732 69 316 0.0 0.0 0.00 0.11 0.00 61 1032.9
20260901205235 68 257 0.0 0.0 0.00 0.11 0.00 64 1032.9
20260901204732 68 262 0.0 0.0 0.00 0.11 0.00 66 1033.1
20260901204232 68 342 0.0 5.0 0.00 0.11 0.00 60 1033.1
20260901203735 68 255 0.0 13.0 0.00 0.11 0.00 59 1033.2
20260901203232 69 243 0.0 11.0 0.00 0.11 0.00 58 1033.2
20260901202732 70 249 8.0 11.0 0.00 0.11 0.00 55 1033.0
20260901202235 71 235 0.0 10.0 0.00 0.11 0.00 52 1033.0
20260901201735 73 189 0.0 7.0 0.00 0.11 0.00 51 1032.9
20260901201232 74 170 7.0 10.0 0.00 0.11 0.00 49 1032.7
20260901200735 75 229 0.0 9.0 0.00 0.11 0.00 49 1032.7
20260901200232 76 114 3.0 10.0 0.00 0.11 0.00 49 1032.6
20260901195732 77 132 0.0 5.0 0.00 0.11 0.00 48 1032.6
20260901195232 77 241 0.0 12.0 0.00 0.11 0.00 47 1032.6
20260901194735 77 174 0.0 6.0 0.00 0.11 0.00 48 1032.6
20260901194232 76 166 3.0 3.0 0.00 0.11 0.00 49 1032.5
20260901193732 76 158 0.0 7.0 0.00 0.11 0.00 48 1032.5
20260901193232 76 145 0.0 2.0 0.00 0.11 0.00 50 1032.5
20260901192732 76 187 0.0 7.0 0.00 0.11 0.00 49 1032.5
20260901192235 75 105 0.0 4.0 0.00 0.11 0.00 51 1032.6
20260901191732 74 156 0.0 8.0 0.00 0.11 0.00 54 1032.6
20260901191232 73 203 1.0 8.0 0.00 0.11 0.00 56 1032.7
20260901190732 72 161 0.0 0.0 0.00 0.11 0.00 60 1032.7
20260901190235 72 190 0.0 0.0 0.00 0.11 0.00 60 1032.8
20260901185735 72 132 0.0 0.0 0.01 0.11 0.00 61 1032.7
20260901185235 71 96 0.0 0.0 0.01 0.11 0.00 64 1032.7
20260901184732 71 197 0.0 0.0 0.01 0.11 0.00 63 1032.8
20260901184232 71 131 0.0 0.0 0.01 0.11 0.00 66 1032.7
20260901183732 70 199 0.0 0.0 0.01 0.11 0.00 68 1032.8
20260901183232 69 142 0.0 0.0 0.01 0.11 0.00 69 1032.8
20260901182735 68 148 0.0 0.0 0.01 0.11 0.00 72 1032.8
20260901182235 67 108 0.0 0.0 0.01 0.11 0.00 75 1032.8
20260901181732 66 148 0.0 0.0 0.01 0.11 0.00 74 1032.7
20260901181232 66 152 0.0 0.0 0.01 0.11 0.00 76 1032.9
20260901180735 65 185 0.0 0.0 0.01 0.11 0.00 78 1032.9
20260901180235 65 164 0.0 0.0 0.01 0.11 0.00 79 1033.0
20260901175735 65 163 0.0 0.0 0.00 0.10 0.00 74 1033.0
20260901175232 65 164 0.0 0.0 0.00 0.10 0.00 76 1033.1
20260901174735 65 145 0.0 0.0 0.00 0.10 0.00 73 1033.1
20260901174232 65 139 0.0 0.0 0.00 0.10 0.00 73 1033.1
20260901173735 66 169 0.0 0.0 0.00 0.10 0.00 72 1033.1
20260901173232 66 145 0.0 0.0 0.00 0.10 0.00 69 1033.1
20260901172732 67 134 0.0 0.0 0.00 0.10 0.00 69 1033.0
20260901172232 68 169 0.0 0.0 0.00 0.10 0.00 68 1033.0
20260901171732 68 165 0.0 0.0 0.00 0.10 0.00 68 1033.0
20260901171235 68 139 0.0 0.0 0.00 0.10 0.00 68 1033.0
20260901170732 68 169 0.0 0.0 0.00 0.10 0.00 68 1033.0
20260901170235 68 169 0.0 0.0 0.00 0.10 0.00 68 1032.9
20260901165732 67 169 0.0 0.0 0.00 0.10 0.00 70 1032.8
20260901165232 66 114 0.0 0.0 0.00 0.10 0.00 73 1032.8
20260901164732 65 120 0.0 0.0 0.00 0.10 0.00 76 1032.8
20260901164235 65 30 0.0 0.0 0.00 0.10 0.00 75 1032.7
20260901163735 65 107 0.0 0.0 0.00 0.10 0.00 76 1032.7
20260901163235 65 114 0.0 2.0 0.00 0.10 0.00 79 1032.7
20260901162732 65 129 0.0 0.0 0.00 0.10 0.00 77 1032.6
20260901162232 66 85 0.0 0.0 0.00 0.10 0.00 75 1032.6
20260901161732 65 115 0.0 0.0 0.00 0.10 0.00 79 1032.5
20260901161235 64 46 0.0 0.0 0.00 0.10 0.00 83 1032.3
20260901160735 63 73 0.0 0.0 0.00 0.10 0.00 84 1032.3
20260901160235 62 79 0.0 0.0 0.00 0.10 0.00 85 1032.3
20260901155732 61 87 0.0 2.0 0.00 0.10 0.00 87 1032.1
20260901155235 61 53 0.0 0.0 0.00 0.10 0.00 88 1032.2
20260901154735 61 94 0.0 3.0 0.00 0.10 0.00 88 1032.2
20260901154235 61 58 0.0 0.0 0.00 0.10 0.00 89 1032.2
20260901153732 61 13 0.0 0.0 0.00 0.10 0.00 88 1032.3
20260901153235 61 83 0.0 4.0 0.00 0.10 0.00 88 1032.4
20260901152732 61 84 0.0 0.0 0.00 0.10 0.00 89 1032.3
20260901152235 60 83 0.0 0.0 0.00 0.10 0.00 89 1032.2
20260901151732 61 30 0.0 0.0 0.00 0.10 0.00 89 1032.2
20260901151235 60 345 0.0 0.0 0.00 0.10 0.00 91 1032.2
20260901150735 60 345 0.0 0.0 0.00 0.10 0.00 92 1032.2
20260901150232 59 78 0.0 0.0 0.00 0.10 0.00 92 1032.2
20260901145732 58 95 0.0 0.0 0.00 0.10 0.00 95 1032.1
20260901145235 58 94 0.0 0.0 0.00 0.10 0.00 95 1032.1
20260901144735 58 83 0.0 0.0 0.00 0.10 0.00 96 1032.1
20260901144235 57 83 0.0 0.0 0.00 0.10 0.00 96 1032.2
20260901143735 57 82 0.0 0.0 0.00 0.10 0.00 96 1032.2
20260901143232 57 89 0.0 0.0 0.00 0.10 0.00 96 1032.1
20260901142735 57 47 0.0 0.0 0.00 0.10 0.00 95 1032.0
20260901142235 57 27 0.0 0.0 0.00 0.10 0.00 96 1032.0
20260901141732 56 32 0.0 0.0 0.00 0.10 0.00 96 1032.0
20260901141232 56 297 0.0 0.0 0.00 0.10 0.00 96 1032.0
20260901140735 56 30 0.0 0.0 0.00 0.10 0.00 96 1032.1
20260901140235 56 36 0.0 0.0 0.00 0.10 0.00 97 1032.1
20260901135735 55 1 0.0 0.0 0.00 0.10 0.00 97 1032.1
20260901135235 55 340 0.0 0.0 0.00 0.10 0.00 96 1032.2
20260901134732 55 354 0.0 0.0 0.00 0.10 0.00 96 1032.2
20260901134232 55 33 0.0 0.0 0.00 0.10 0.00 96 1032.2
20260901133735 55 20 0.0 0.0 0.00 0.10 0.00 96 1032.2
20260901133235 56 56 0.0 0.0 0.01 0.10 0.00 96 1032.1
20260901132735 56 56 0.0 0.0 0.01 0.10 0.00 96 1032.1
20260901132235 56 112 0.0 0.0 0.01 0.10 0.00 96 1032.1
20260901131735 56 71 0.0 0.0 0.01 0.10 0.00 96 1032.1
20260901131235 56 71 0.0 0.0 0.01 0.10 0.00 96 1032.0
20260901130735 56 106 0.0 0.0 0.01 0.10 0.00 96 1031.9
20260901130232 56 278 0.0 0.0 0.01 0.10 0.00 96 1032.0
20260901125735 56 278 0.0 0.0 0.01 0.10 0.00 97 1032.0
20260901125232 56 18 0.0 0.0 0.01 0.10 0.00 97 1032.0
20260901124732 55 18 0.0 0.0 0.02 0.10 0.00 97 1032.0
20260901124235 55 18 0.0 0.0 0.02 0.10 0.00 97 1032.0
20260901123735 55 250 0.0 0.0 0.02 0.10 0.00 97 1032.2
20260901123235 55 250 0.0 0.0 0.01 0.09 0.00 97 1032.2
20260901122735 55 339 0.0 0.0 0.01 0.09 0.00 97 1032.2
20260901122235 55 339 0.0 0.0 0.01 0.09 0.00 97 1032.1
20260901121732 55 339 0.0 0.0 0.01 0.09 0.00 97 1032.2
20260901121235 55 339 0.0 0.0 0.01 0.09 0.00 97 1032.4
20260901120735 55 82 0.0 0.0 0.01 0.09 0.00 97 1032.4
20260901120235 55 90 0.0 0.0 0.02 0.09 0.00 96 1032.6
20260901115735 55 90 0.0 0.0 0.02 0.09 0.00 96 1032.7
20260901115232 55 90 0.0 0.0 0.02 0.09 0.00 96 1032.8
20260901114732 55 91 0.0 0.0 0.01 0.09 0.00 96 1032.9
20260901114232 55 91 0.0 0.0 0.01 0.09 0.00 96 1032.9
20260901113735 55 90 0.0 0.0 0.01 0.09 0.00 96 1032.9
20260901113232 55 90 0.0 0.0 0.01 0.09 0.00 96 1032.8
20260901112735 56 91 0.0 0.0 0.01 0.09 0.00 96 1032.9
20260901112235 56 90 0.0 0.0 0.01 0.09 0.00 96 1032.9
20260901111732 56 91 0.0 0.0 0.01 0.09 0.00 96 1033.0
20260901111235 56 107 0.0 0.0 0.01 0.09 0.00 95 1033.0
20260901110735 57 107 0.0 0.0 0.01 0.09 0.00 96 1033.0
20260901110232 57 110 0.0 0.0 0.00 0.09 0.00 96 1033.1
20260901105732 57 110 0.0 0.0 0.00 0.09 0.00 96 1033.1
20260901105232 57 128 0.0 0.0 0.00 0.09 0.00 96 1033.1
20260901104735 57 139 0.0 0.0 0.00 0.09 0.00 96 1033.1
20260901104232 57 139 0.0 0.0 0.01 0.09 0.00 96 1033.0
20260901103735 57 139 0.0 0.0 0.01 0.09 0.00 96 1033.1
20260901103232 57 139 0.0 0.0 0.01 0.09 0.00 96 1033.2
20260901102732 57 139 0.0 0.0 0.01 0.09 0.00 95 1033.3
20260901102232 57 139 0.0 0.0 0.01 0.09 0.00 95 1033.3
20260901101735 57 139 0.0 0.0 0.01 0.09 0.00 95 1033.5
20260901101232 58 139 0.0 0.0 0.01 0.09 0.00 95 1033.8
20260901100735 58 139 0.0 0.0 0.01 0.09 0.00 94 1033.8
20260901100235 58 139 0.0 0.0 0.01 0.09 0.00 94 1034.0
20260901095735 58 139 0.0 0.0 0.01 0.09 0.00 94 1034.2
20260901095232 58 139 0.0 0.0 0.01 0.09 0.00 94 1034.3
20260901094735 58 139 0.0 0.0 0.01 0.09 0.00 94 1034.4
20260901094232 58 139 0.0 0.0 0.00 0.08 0.00 94 1034.5
20260901093735 58 139 0.0 0.0 0.00 0.08 0.00 94 1034.6
20260901093235 58 139 0.0 0.0 0.00 0.08 0.00 93 1034.8
20260901092732 58 145 0.0 0.0 0.00 0.08 0.00 93 1034.9
20260901092232 58 139 0.0 0.0 0.00 0.08 0.00 92 1034.9
20260901091735 58 160 0.0 0.0 0.00 0.08 0.00 91 1034.9
20260901091232 58 110 0.0 0.0 0.00 0.08 0.00 90 1034.9
20260901090732 59 139 0.0 8.0 0.00 0.08 0.00 89 1035.0
20260901090232 59 198 0.0 0.0 0.00 0.08 0.00 87 1035.0
20260901085732 60 146 0.0 0.0 0.00 0.08 0.00 85 1034.9
20260901085232 59 148 0.0 0.0 0.00 0.08 0.00 83 1034.8
20260901084735 59 253 0.0 0.0 0.00 0.08 0.00 84 1034.7
20260901084232 59 253 0.0 0.0 0.00 0.08 0.00 85 1034.6
20260901083735 59 253 0.0 0.0 0.00 0.08 0.00 86 1034.6
20260901083235 59 253 0.0 0.0 0.00 0.08 0.00 86 1034.6
20260901082732 59 253 0.0 0.0 0.00 0.08 0.00 85 1034.6
20260901082232 59 253 0.0 0.0 0.00 0.08 0.00 85 1034.7
20260901081732 59 253 0.0 0.0 0.00 0.08 0.00 85 1034.9
20260901081236 59 253 0.0 0.0 0.00 0.08 0.00 86 1035.0
20260901080732 59 252 0.0 0.0 0.00 0.08 0.00 87 1035.1
20260901080235 58 253 0.0 0.0 0.00 0.08 0.00 89 1035.3
20260901075735 58 253 0.0 0.0 0.00 0.08 0.00 89 1035.3
20260901075235 58 253 0.0 0.0 0.00 0.08 0.00 89 1035.4
20260901074735 58 253 0.0 0.0 0.00 0.08 0.00 89 1035.5
20260901074235 59 253 0.0 0.0 0.00 0.08 0.00 89 1035.5
20260901073732 59 253 0.0 0.0 0.00 0.08 0.00 89 1035.7
20260901073232 59 253 0.0 0.0 0.00 0.08 0.00 89 1035.8
20260901072732 59 252 0.0 0.0 0.00 0.08 0.00 89 1035.9
20260901072232 59 253 0.0 0.0 0.00 0.08 0.00 89 1035.9
20260901071735 59 253 0.0 0.0 0.00 0.08 0.00 89 1036.0
20260901071232 58 253 0.0 0.0 0.00 0.08 0.00 88 1036.1
20260901070735 59 253 0.0 0.0 0.00 0.08 0.00 87 1036.0
20260901070235 59 253 0.0 0.0 0.00 0.08 0.00 87 1036.2
20260901065732 59 253 0.0 0.0 0.00 0.08 0.00 87 1036.3
20260901065235 59 253 0.0 0.0 0.00 0.08 0.00 85 1036.3
20260901064735 59 253 0.0 0.0 0.00 0.08 0.00 84 1036.3
20260901064235 60 253 0.0 0.0 0.00 0.08 0.00 83 1036.3
20260901063735 60 253 0.0 0.0 0.00 0.08 0.00 82 1036.3
20260901063235 60 252 0.0 0.0 0.00 0.08 0.00 80 1036.5
20260901062735 60 252 0.0 0.0 0.00 0.08 0.00 80 1036.4
20260901062235 60 253 0.0 0.0 0.00 0.08 0.00 80 1036.4
20260901061735 60 252 0.0 0.0 0.00 0.08 0.00 80 1036.4
20260901061235 60 252 0.0 0.0 0.00 0.08 0.00 80 1036.6
20260901060735 60 252 0.0 0.0 0.00 0.08 0.00 80 1036.6
20260901060232 59 253 0.0 0.0 0.00 0.08 0.00 84 1036.8
20260901055732 59 253 0.0 0.0 0.00 0.08 0.00 85 1036.9
20260901055235 59 252 0.0 0.0 0.00 0.08 0.00 86 1037.1
20260901054735 59 253 0.0 0.0 0.00 0.08 0.00 87 1037.0
20260901054235 60 252 0.0 0.0 0.00 0.08 0.00 86 1037.1
20260901053732 60 253 0.0 0.0 0.00 0.08 0.00 85 1037.1
20260901053232 60 253 0.0 0.0 0.00 0.08 0.00 87 1037.2
20260901052735 59 253 0.0 0.0 0.00 0.08 0.00 89 1037.5
20260901052232 59 253 0.0 0.0 0.00 0.08 0.00 90 1037.4
20260901051735 59 253 0.0 0.0 0.00 0.08 0.00 89 1037.3
20260901051232 59 253 0.0 0.0 0.00 0.08 0.00 89 1037.4
20260901050735 60 252 0.0 0.0 0.00 0.08 0.00 88 1037.6
20260901050235 60 253 0.0 0.0 0.00 0.08 0.00 88 1038.0
20260901045732 60 253 0.0 0.0 0.01 0.08 0.00 88 1038.2
20260901045235 60 252 0.0 0.0 0.01 0.08 0.00 88 1038.2
20260901044732 60 253 0.0 0.0 0.01 0.08 0.00 87 1038.1
20260901044235 60 253 0.0 0.0 0.01 0.08 0.00 87 1038.2
20260901043735 60 253 0.0 0.0 0.01 0.08 0.00 88 1038.2
20260901043235 60 258 0.0 0.0 0.01 0.08 0.00 88 1038.2
20260901042732 60 258 0.0 0.0 0.01 0.08 0.00 89 1038.2
20260901042235 60 255 0.0 0.0 0.01 0.08 0.00 90 1038.4
20260901041732 60 264 0.0 0.0 0.01 0.08 0.00 91 1038.5
20260901041232 60 229 0.0 0.0 0.01 0.08 0.00 91 1038.5
20260901040735 60 228 0.0 0.0 0.01 0.08 0.00 91 1038.6
20260901040235 60 227 0.0 0.0 0.01 0.08 0.00 90 1038.7
20260901035735 60 156 0.0 0.0 0.00 0.07 0.00 89 1038.6
20260901035235 60 156 0.0 0.0 0.00 0.07 0.00 89 1038.7
20260901034732 60 156 0.0 0.0 0.00 0.07 0.00 89 1038.8
20260901034235 60 162 0.0 0.0 0.00 0.07 0.00 89 1038.8
20260901033735 60 142 0.0 0.0 0.00 0.07 0.00 89 1038.7
20260901033235 60 148 0.0 0.0 0.00 0.07 0.00 89 1038.5
20260901032735 60 159 0.0 0.0 0.00 0.07 0.00 89 1038.5
20260901032232 60 174 0.0 0.0 0.00 0.07 0.00 88 1038.3
20260901031732 60 322 0.0 0.0 0.00 0.07 0.00 87 1038.1
20260901031232 60 321 0.0 0.0 0.00 0.07 0.00 86 1037.9
20260901030735 60 322 0.0 0.0 0.00 0.07 0.00 88 1037.8
20260901030235 60 27 0.0 0.0 0.00 0.07 0.00 88 1037.7
20260901025732 60 27 0.0 0.0 0.00 0.07 0.00 88 1037.7
20260901025232 60 27 0.0 0.0 0.00 0.07 0.00 87 1037.7
20260901024732 60 70 0.0 0.0 0.00 0.07 0.00 87 1037.6
20260901024235 60 70 0.0 0.0 0.00 0.07 0.00 87 1037.6